CAPE
4 4 2 1 0 0 0 0 0 0 0 1 2 1 3 3 0 0 0 0 0 0 0 0 0 0 0 0 0 0 0 0 0 0 0 0 0 0 535 212 229 178 154 312 127
2 2 1 0 0 0 0 0 0 0 0 0 1 1 4 5 0 0 0 0 0 0 0 0 0 0 0 0 0 0 0 0 0 0 0 0 0 0 0 341 246 261 267 455 217
2 1 0 0 0 0 0 0 0 0 0 0 0 1 5 0 0 0 0 0 0 16 0 0 0 0 0 0 0 0 0 0 0 0 0 0 0 0 0 0 295 558 572 578 437
0 0 0 0 0 0 0 0 0 0 0 0 0 2 0 0 0 0 0 0 0 0 0 0 0 0 0 0 0 0 0 0 0 0 0 0 0 0 0 0 160 144 610 660 495
0 0 0 0 0 0 0 0 0 0 0 0 0 0 0 0 0 0 0 0 0 0 0 0 0 0 0 0 0 0 0 0 0 0 0 0 0 0 0 0 0 1 698 710 573
0 0 0 0 0 0 0 0 0 0 0 0 0 0 0 0 0 0 0 0 0 0 0 0 0 0 0 0 0 0 0 0 0 0 0 0 0 0 0 0 0 17 816 788 653
0 0 0 0 0 0 0 0 0 0 0 0 0 0 0 0 0 0 0 0 0 0 0 0 0 0 0 0 0 0 0 0 0 0 0 0 0 0 0 0 137 51 855 928 813
0 0 0 0 0 0 0 0 0 0 0 0 0 0 0 0 0 0 0 0 0 0 0 0 0 0 0 0 0 0 0 0 0 0 0 0 0 0 0 0 232 212 708 947 895
0 0 0 0 0 0 0 0 0 0 0 0 0 0 0 0 0 0 0 0 0 0 0 0 0 0 0 0 0 0 0 0 0 0 0 0 0 0 0 171 559 470 443 604 734
1 0 0 0 0 0 0 0 0 0 0 0 0 0 0 0 0 0 0 0 0 0 0 0 0 0 0 0 0 0 0 0 0 0 0 0 0 0 0 24 669 642 547 531 441
0 0 0 0 0 0 0 0 0 0 0 0 0 0 0 0 0 0 0 0 0 0 0 0 0 0 0 0 0 0 0 0 0 0 0 0 0 0 0 0 686 718 664 633 572
2 0 0 0 0 0 0 0 0 0 0 0 0 0 0 0 0 0 0 0 0 0 0 0 0 0 0 0 0 0 0 0 0 0 0 0 0 0 0 0 33 870 785 670 736
2 0 0 0 0 0 0 0 0 0 0 0 0 0 0 0 0 0 0 0 0 0 0 0 0 0 0 0 0 0 0 0 0 0 0 0 0 0 0 0 0 769 901 876 794
1 0 0 0 0 0 0 0 0 0 0 0 0 0 0 0 0 0 0 0 0 0 0 0 0 0 0 0 0 0 0 0 0 0 0 0 0 0 0 0 0 51 989 909 868
0 0 0 0 0 0 0 0 0 0 0 0 0 0 0 0 0 0 0 0 0 0 0 0 0 0 0 0 0 0 0 0 0 0 0 0 0 0 0 0 0 0 603 765 838
0 0 0 0 0 0 0 0 0 0 0 0 0 0 0 0 0 0 0 0 0 0 0 0 0 0 0 0 0 0 0 0 0 0 0 0 0 0 0 0 0 0 0 594 838
0 0 0 0 0 0 0 0 0 0 0 0 0 0 0 0 0 0 0 0 0 0 0 0 0 0 4 0 0 0 1 3 3 0 0 0 0 0 0 0 0 0 0 85 653
0 0 0 0 0 0 0 0 0 0 0 0 0 0 0 0 0 0 0 0 0 0 0 0 0 0 0 5 12 0 1 38 35 1 0 0 0 0 0 0 0 120 0 0 334
0 0 0 0 0 0 0 0 0 0 0 0 0 0 0 0 0 0 0 0 0 0 0 0 0 0 2 0 0 0 0 0 5 0 0 0 0 0 0 1 279 230 83 1 7
0 0 0 0 0 0 0 0 0 0 0 0 0 0 0 0 0 0 0 0 0 0 0 0 0 0 0 0 0 0 0 0 0 0 0 0 0 0 0 0 176 122 12 34 78
0 0 0 0 0 0 0 0 0 0 0 0 0 0 0 0 0 0 0 0 0 0 0 0 1 0 0 9 26 4 4 1 0 0 0 0 0 0 0 31 24 4 3 0 0
0 0 0 0 0 0 0 0 0 0 0 0 0 0 0 0 0 0 0 0 0 0 0 0 1 0 0 2 5 1 6 4 0 0 0 0 0 0 0 1 0 0 0 0 0
0 0 0 0 0 0 0 0 0 0 0 0 0 0 0 0 0 0 0 0 0 0 0 1 0 0 0 0 0 0 0 7 1 0 0 0 0 11 0 0 0 0 0 0 0
0 0 0 0 0 0 0 0 0 0 0 0 0 0 0 0 0 0 0 0 0 0 3 0 0 0 0 0 0 0 0 0 0 3 2 0 2 5 4 0 0 0 0 0 0
0 0 0 0 0 0 0 0 0 2 0 0 0 0 0 0 1 3 0 0 0 0 0 0 0 0 0 0 0 0 0 0 6 3 8 1 11 14 18 0 0 0 0 0 0
0 0 0 0 0 0 0 0 0 0 0 0 6 0 0 0 0 0 0 0 0 0 0 0 0 0 0 0 0 0 0 0 0 11 14 17 8 12 15 0 0 0 0 0 0
0 0 0 0 0 0 0 0 1 0 0 0 4 0 0 6 0 0 0 0 0 0 0 0 0 0 0 0 0 0 0 0 1 19 12 11 27 6 22 28 0 0 0 0 0
CIN
-0 -0 -0 -0 -0 -0 -0 -0 -0 -0 -0 -0 -0 -0 -0 -0 -0 -0 -0 -0 -0 -0 -0 -0 -0 -0 -0 -0 -0 -0 -0 -0 -0 -0 -0 -0 -0 -0 -105 -243 -193 -295 -363 -355 -509
-0 -0 -0 -0 -0 -0 -0 -0 -0 -0 -0 -0 -0 -0 -0 -0 -0 -0 -0 -0 -0 -0 -0 -0 -0 -0 -0 -0 -0 -0 -0 -0 -0 -0 -0 -0 -0 -0 -0 -57 -121 -199 -275 -422 -451
-0 -0 -0 -0 -0 -0 -0 -0 -0 -0 -0 -0 -0 -0 -0 -0 -0 -0 -0 -0 -42 -136 -0 -0 -0 -0 -0 -0 -0 -0 -0 -0 -0 -0 -0 -0 -0 -0 -0 -0 -149 -160 -340 -375 -378
-0 -0 -0 -0 -0 -0 -0 -0 -0 -0 -0 -0 -0 -0 -0 -0 -0 -0 -0 -0 -0 -0 -0 -0 -0 -0 -0 -0 -0 -0 -0 -0 -0 -0 -0 -0 -0 -0 -0 -0 -143 -189 -225 -328 -372
-0 -0 -0 -0 -0 -0 -0 -0 -0 -0 -0 -0 -0 -0 -0 -0 -0 -0 -0 -0 -0 -0 -0 -0 -0 -0 -0 -0 -0 -0 -0 -0 -0 -0 -0 -0 -0 -0 -0 -0 -0 -7 -192 -245 -305
-0 -0 -0 -0 -0 -0 -0 -0 -0 -0 -0 -0 -0 -0 -0 -0 -0 -0 -0 -0 -0 -0 -0 -0 -0 -0 -0 -0 -0 -0 -0 -0 -0 -0 -0 -0 -0 -0 -0 -0 -0 -222 -245 -249 -227
-0 -0 -0 -0 -0 -0 -0 -0 -0 -0 -0 -0 -0 -0 -0 -0 -0 -0 -0 -0 -0 -0 -0 -0 -0 -0 -0 -0 -0 -0 -0 -0 -0 -0 -0 -0 -0 -0 -0 -0 -172 -196 -216 -248 -215
-0 -0 -0 -0 -0 -0 -0 -0 -0 -0 -0 -0 -0 -0 -0 -0 -0 -0 -0 -0 -0 -0 -0 -0 -0 -0 -0 -0 -0 -0 -0 -0 -0 -0 -0 -0 -0 -0 -0 -0 -152 -167 -178 -162 -162
-0 -0 -0 -0 -0 -0 -0 -0 -0 -0 -0 -0 -0 -0 -0 -0 -0 -0 -0 -0 -0 -0 -0 -0 -0 -0 -0 -0 -0 -0 -0 -0 -0 -0 -0 -0 -0 -0 -0 -218 -110 -159 -199 -179 -195
-0 -0 -0 -0 -0 -0 -0 -0 -0 -0 -0 -0 -0 -0 -0 -0 -0 -0 -0 -0 -0 -0 -0 -0 -0 -0 -0 -0 -0 -0 -0 -0 -0 -0 -0 -0 -0 -0 -0 -123 -106 -137 -167 -195 -238
-0 -0 -0 -0 -0 -0 -0 -0 -0 -0 -0 -0 -0 -0 -0 -0 -0 -0 -0 -0 -0 -0 -0 -0 -0 -0 -0 -0 -0 -0 -0 -0 -0 -0 -0 -0 -0 -0 -0 -0 -80 -113 -153 -165 -201
-0 -0 -0 -0 -0 -0 -0 -0 -0 -0 -0 -0 -0 -0 -0 -0 -0 -0 -0 -0 -0 -0 -0 -0 -0 -0 -0 -0 -0 -0 -0 -0 -0 -0 -0 -0 -0 -0 -0 -0 -109 -86 -129 -151 -184
-0 -0 -0 -0 -0 -0 -0 -0 -0 -0 -0 -0 -0 -0 -0 -0 -0 -0 -0 -0 -0 -0 -0 -0 -0 -0 -0 -0 -0 -0 -0 -0 -0 -0 -0 -0 -0 -0 -0 -0 -0 -94 -103 -146 -167
-0 -0 -0 -0 -0 -0 -0 -0 -0 -0 -0 -0 -0 -0 -0 -0 -0 -0 -0 -0 -0 -0 -0 -0 -0 -0 -0 -0 -0 -0 -0 -0 -0 -0 -0 -0 -0 -0 -0 -0 -0 -251 -97 -117 -149
-0 -0 -0 -0 -0 -0 -0 -0 -0 -0 -0 -0 -0 -0 -0 -0 -0 -0 -0 -0 -0 -0 -0 -0 -0 -0 -0 -0 -0 -0 -0 -0 -0 -0 -0 -0 -0 -0 -0 -0 -0 -0 -155 -142 -154
-0 -0 -0 -0 -0 -0 -0 -0 -0 -0 -0 -0 -0 -0 -0 -0 -0 -0 -0 -0 -0 -0 -0 -0 -0 -0 -0 -0 -0 -0 -0 -0 -0 -0 -0 -0 -0 -0 -0 -0 -0 -0 -0 -153 -156
-0 -0 -0 -0 -0 -0 -0 -0 -0 -0 -0 -0 -0 -0 -0 -0 -0 -0 -0 -0 -0 -0 -0 -0 -0 -0 -0 -0 -0 -0 -14 -7 -7 -0 -0 -0 -0 -0 -0 -0 -0 -0 -0 -176 -181
-0 -0 -0 -0 -0 -0 -0 -0 -0 -0 -0 -0 -0 -0 -0 -0 -0 -0 -0 -0 -0 -0 -0 -0 -0 -0 -0 -0 -0 -0 -4 -1 -0 -9 -0 -0 -0 -0 -0 -0 -0 -434 -0 -0 -256
-0 -0 -0 -0 -0 -0 -0 -0 -0 -0 -0 -0 -0 -0 -0 -0 -0 -0 -0 -0 -0 -0 -0 -0 -0 -0 -1 -0 -0 -0 -51 -0 -9 -0 -0 -0 -0 -0 -0 -20 -330 -415 -574 -44 -283
-0 -0 -0 -0 -0 -0 -0 -0 -0 -0 -0 -0 -0 -0 -0 -0 -0 -0 -0 -0 -0 -0 -0 -0 -0 -0 -0 -0 -0 -0 -0 -0 -20 -0 -0 -0 -0 -0 -0 -0 -300 -414 -352 -385 -705
-0 -0 -0 -0 -0 -0 -0 -0 -0 -0 -0 -0 -0 -0 -0 -0 -0 -0 -0 -0 -0 -0 -0 -0 -1 -0 -0 -0 -0 -0 -0 -0 -0 -0 -0 -0 -0 -0 -0 -138 -333 -155 -178 -0 -0
-0 -0 -0 -0 -0 -0 -0 -0 -0 -0 -0 -0 -0 -0 -0 -0 -0 -0 -0 -0 -0 -0 -0 -0 -1 -0 -0 -0 -1 -0 -0 -0 -0 -0 -0 -0 -0 -0 -0 -0 -0 -0 -0 -0 -0
-0 -0 -0 -0 -0 -0 -0 -0 -0 -0 -0 -0 -0 -0 -0 -0 -0 -0 -0 -0 -0 -0 -0 -4 -0 -0 -0 -0 -0 -0 -0 -0 -0 -0 -0 -0 -0 -0 -0 -0 -0 -0 -0 -0 -0
-0 -0 -0 -0 -0 -0 -0 -0 -0 -0 -0 -0 -0 -0 -0 -0 -0 -0 -0 -0 -0 -0 -0 -0 -0 -0 -0 -0 -0 -0 -0 -0 -0 -0 -0 -0 -0 -0 -0 -0 -0 -0 -0 -0 -0
-0 -0 -0 -0 -0 -0 -0 -0 -0 -0 -0 -0 -0 -0 -0 -0 -0 -2 -0 -0 -0 -0 -0 -0 -0 -0 -0 -0 -0 -0 -0 -0 -0 -0 -0 -0 -0 -0 -0 -0 -0 -0 -0 -0 -0
-0 -0 -0 -0 -0 -0 -0 -0 -0 -0 -0 -0 -0 -0 -0 -0 -0 -0 -0 -0 -0 -0 -0 -0 -0 -0 -0 -0 -0 -0 -0 -0 -0 -0 -0 -0 -0 -0 -0 -0 -0 -0 -0 -0 -0
-0 -0 -0 -0 -0 -0 -0 -0 -0 -0 -0 -0 -1 -0 -0 -4 -0 -0 -0 -0 -0 -0 -0 -0 -0 -0 -0 -0 -0 -0 -0 -0 -0 -0 -0 -0 -0 -0 -0 -0 -0 -0 -0 -0 -0
Wind_Speed
23 23 22 21 21 21 20 20 19 18 17 17 16 16 16 14 12 3 3 10 7 10 11 3 3 4 2 3 5 5 1 6 11 10 10 4 2 8 2 5 4 6 5 4 24
23 23 23 22 21 20 19 19 18 18 17 16 16 15 13 10 2 1 10 15 17 15 4 3 1 4 1 4 3 5 5 12 4 11 10 6 2 4 7 1 4 4 1 19 25
23 23 23 22 22 20 19 18 17 17 16 15 15 15 11 4 1 5 8 21 15 6 6 3 1 2 3 3 4 6 12 4 11 5 6 6 6 6 8 7 7 15 15 22 22
24 24 24 24 24 22 21 19 18 17 16 13 13 13 11 2 7 7 17 23 14 7 1 3 1 2 3 6 5 7 7 8 11 7 5 7 6 8 5 15 8 9 15 22 25
25 25 25 25 24 23 21 20 20 18 15 12 10 11 4 6 4 9 18 15 9 4 2 2 2 2 4 5 4 8 3 8 12 11 8 9 15 12 11 13 10 13 21 24 22
26 26 26 26 26 25 24 21 20 17 13 7 6 7 2 17 6 8 11 10 11 7 8 3 6 6 7 6 7 6 8 13 12 22 9 14 7 4 17 6 11 18 27 25 25
27 27 27 27 26 25 24 22 20 16 9 1 1 2 5 4 6 9 10 7 8 5 5 5 5 2 2 7 7 7 12 15 19 6 8 5 12 21 18 9 11 21 25 25 25
28 27 27 26 26 26 25 22 18 11 6 6 4 2 3 4 4 15 20 22 20 4 4 12 8 7 6 6 7 7 6 8 12 13 6 10 28 12 9 10 12 18 20 21 24
28 26 25 25 25 25 26 23 11 6 7 7 4 3 5 12 10 14 18 22 15 7 10 12 6 9 4 5 5 6 15 16 13 2 5 12 21 4 11 10 13 19 20 21 20
28 26 25 24 23 23 27 10 8 7 3 2 1 3 10 21 9 15 21 23 4 10 7 7 3 3 4 8 19 15 8 6 4 5 7 11 20 9 3 9 16 20 21 22 21
29 28 25 23 21 19 15 6 9 10 11 3 6 3 7 16 3 15 22 17 6 2 4 5 3 15 21 11 20 16 22 18 5 7 8 15 18 16 9 8 10 18 22 22 23
29 28 26 22 20 10 7 7 2 4 6 5 6 5 9 10 9 16 21 16 8 7 7 4 15 15 17 10 15 13 19 24 20 10 10 17 21 6 8 10 14 18 20 22 22
29 28 27 23 13 5 2 6 5 5 1 6 6 7 14 9 5 13 23 13 6 6 10 9 18 16 15 17 17 18 19 20 20 8 15 5 14 8 9 8 10 17 24 23 25
29 27 24 27 7 3 2 3 4 3 4 11 12 8 14 14 10 6 16 8 7 12 16 12 9 21 15 19 18 19 18 20 16 9 17 10 18 7 5 9 12 17 20 23 25
30 26 20 6 3 4 6 7 4 3 5 17 8 7 9 15 11 14 10 7 13 17 4 9 27 23 18 20 18 22 17 16 15 12 15 5 2 8 5 7 10 15 22 24 25
29 25 21 4 1 5 8 4 5 9 3 6 9 15 13 15 9 10 12 13 9 13 15 19 17 10 11 20 16 22 17 17 17 13 12 20 7 8 6 10 5 7 19 24 23
28 22 9 2 9 13 4 5 7 10 5 10 11 11 11 16 10 16 13 19 20 20 29 28 14 14 9 21 26 10 10 10 9 10 9 17 7 14 7 15 16 11 15 23 24
26 13 8 2 9 5 4 8 13 4 4 8 10 6 8 17 9 17 6 9 12 17 14 15 17 15 15 16 14 29 19 6 16 11 12 7 9 9 17 14 2 2 8 19 21
14 5 6 15 14 3 8 10 3 4 6 8 11 4 5 8 6 10 7 8 7 17 10 10 13 18 18 29 11 4 8 5 9 1 5 4 10 2 1 3 3 5 5 6 15
3 3 10 19 11 8 9 8 3 4 5 5 7 6 10 12 9 12 8 1 9 15 13 6 16 9 24 20 18 14 9 2 4 9 4 4 5 4 19 15 8 5 5 9 8
5 6 8 19 6 8 7 4 3 4 7 5 6 5 8 11 8 8 5 9 11 14 8 6 5 18 16 13 21 16 13 9 5 4 4 4 4 10 12 8 6 9 11 11 11
3 6 7 7 9 3 4 5 6 7 6 5 4 6 9 12 6 6 8 4 9 13 10 3 6 14 17 4 11 12 12 9 7 7 3 2 4 14 14 14 10 12 14 13 13
4 2 6 6 6 5 6 7 4 10 6 7 5 5 10 8 8 9 6 13 12 17 8 8 5 9 12 4 5 15 18 13 13 3 4 2 3 15 13 12 13 13 14 14 15
4 5 6 6 1 2 3 5 7 7 3 7 4 6 11 10 8 10 13 9 18 18 21 7 2 4 7 10 14 16 22 16 7 4 8 6 11 17 18 11 13 14 14 15 16
5 1 0 5 6 5 3 5 8 10 5 5 4 10 11 10 15 6 17 21 20 14 6 2 5 8 6 16 10 15 17 15 7 5 6 9 10 15 16 14 12 10 12 16 17
4 4 4 2 3 5 5 5 7 12 10 5 8 15 12 9 7 22 21 19 16 16 10 2 5 7 10 11 11 14 12 14 9 8 8 8 7 12 17 17 18 16 14 16 16
1 2 1 5 5 4 3 6 8 11 7 7 13 12 8 7 16 19 19 20 21 17 11 4 3 3 5 10 15 3 10 13 9 15 11 9 8 11 13 15 18 18 15 13 14
Wind_Direction
355 351 347 345 343 339 337 336 334 330 330 329 328 325 320 327 325 336 308 235 225 267 337 303 84 136 115 211 184 129 111 224 236 187 234 288 72 320 141 120 281 211 174 181 161
356 351 349 345 342 338 334 332 329 325 327 326 322 318 330 331 285 258 252 280 278 263 291 264 149 135 181 222 226 156 187 216 215 225 253 287 225 325 338 264 227 236 215 133 157
353 348 344 343 342 339 336 330 328 323 326 324 319 313 328 343 341 2 300 337 326 258 235 339 325 194 218 189 223 205 235 211 253 232 244 251 264 209 243 247 209 213 149 155 158
351 347 345 347 344 340 334 328 328 328 328 324 319 319 329 141 60 302 325 332 342 77 105 277 285 252 235 229 231 256 234 211 263 222 242 244 249 180 225 254 224 184 176 164 167
351 348 347 347 343 338 332 329 324 328 324 326 319 334 348 47 14 288 326 335 0 9 332 267 249 237 233 256 293 241 324 269 259 257 235 257 248 261 231 247 241 215 169 182 184
351 348 347 348 344 339 334 330 324 324 325 330 319 339 12 54 304 308 330 4 6 352 307 219 242 234 271 236 240 296 294 266 252 266 257 259 268 227 252 227 251 179 179 179 187
352 348 346 347 344 337 331 328 327 321 333 142 191 0 54 74 313 320 8 4 330 296 284 261 237 175 296 310 262 285 287 282 255 236 230 196 272 242 255 209 210 186 182 179 183
352 349 345 343 342 335 326 330 327 332 89 133 119 61 95 260 316 19 7 354 341 312 256 266 246 218 178 245 314 301 256 253 264 215 213 138 265 245 255 196 197 176 177 180 188
349 347 343 340 339 333 323 330 334 43 113 127 51 33 19 336 8 16 10 343 320 328 299 267 224 197 184 161 313 215 250 235 274 194 174 180 251 231 210 193 180 178 179 183 189
348 345 342 339 339 334 323 346 359 54 104 264 197 38 356 348 341 1 356 335 318 319 331 20 340 238 215 174 230 242 277 288 246 251 207 241 254 252 250 213 187 183 187 189 187
346 343 339 340 337 334 337 14 14 356 37 68 292 119 299 318 32 0 353 340 4 3 23 299 243 226 238 246 260 269 274 267 280 245 208 225 249 252 205 209 207 192 189 190 194
345 341 336 337 333 338 23 67 94 225 326 310 303 41 355 317 5 354 3 7 343 336 320 320 243 252 267 243 251 246 256 263 272 260 242 243 252 234 173 214 201 195 201 197 191
345 340 335 335 330 41 75 96 283 140 145 319 353 18 6 342 49 349 9 340 323 347 352 297 273 299 275 263 252 248 244 254 255 262 260 230 264 239 222 188 209 207 198 201 192
344 338 335 330 47 313 346 13 344 142 88 354 357 353 354 338 21 355 14 335 349 312 329 285 320 331 301 252 242 246 245 256 252 214 244 188 256 234 216 213 196 207 203 203 201
342 336 334 359 275 353 299 341 310 64 56 324 350 304 347 18 293 354 9 351 331 322 314 297 302 300 309 279 246 252 238 245 240 229 232 238 205 256 165 233 206 216 204 205 204
341 335 336 11 22 251 323 334 50 44 8 342 340 340 9 358 322 320 19 5 299 310 328 312 288 289 308 328 292 247 241 234 236 226 226 221 187 234 216 228 206 193 211 210 201
338 331 338 338 318 321 330 43 40 75 340 340 336 344 10 349 325 351 9 9 20 347 352 335 340 337 358 344 329 270 230 216 209 194 217 214 209 235 228 241 235 237 209 209 206
336 328 318 170 326 316 56 58 66 330 18 307 324 326 15 357 328 338 0 10 25 16 321 341 322 10 332 312 278 283 240 210 200 184 219 157 210 240 219 247 213 244 248 209 201
342 340 12 340 340 38 67 54 150 330 310 317 325 340 349 347 312 344 345 6 3 17 358 308 291 307 314 302 320 297 208 306 167 184 103 200 256 357 153 124 58 9 29 304 215
44 20 6 334 338 38 66 94 82 351 316 334 359 11 352 341 349 346 346 22 4 4 344 280 294 315 335 348 6 21 3 337 315 180 170 241 214 4 331 311 334 78 19 9 359
44 52 318 339 36 39 70 92 102 1 20 356 325 321 349 331 318 316 325 306 10 350 343 294 284 310 345 26 15 7 20 335 273 34 146 208 112 356 343 343 46 24 43 35 21
52 49 308 349 49 31 25 359 35 353 5 341 14 355 353 326 311 307 314 326 338 343 332 294 288 314 319 190 2 20 4 353 358 7 358 274 64 20 15 11 47 49 44 37 31
66 321 329 27 68 350 322 355 35 21 11 6 15 11 357 340 326 320 331 331 346 338 320 339 335 320 335 305 255 340 354 3 331 213 43 320 331 1 6 25 28 46 41 44 37
70 27 338 35 38 91 359 353 358 8 12 341 315 15 348 327 317 290 333 324 329 321 325 353 240 173 276 280 299 312 328 336 346 312 347 52 319 351 346 31 21 32 42 43 44
33 0 266 338 348 360 19 14 346 8 3 342 347 1 337 314 314 332 323 315 314 296 315 360 265 278 262 293 299 292 323 329 319 308 295 332 351 349 347 20 20 23 38 49 46
84 39 358 303 292 348 4 7 353 343 332 327 332 325 311 294 336 314 310 301 291 305 319 285 277 303 297 302 302 313 342 332 14 2 313 28 33 357 4 13 19 16 27 41 42
24 24 6 302 341 13 351 340 327 331 295 334 319 321 307 311 304 285 276 278 270 280 295 248 263 304 293 328 313 339 351 343 65 31 360 8 347 4 10 9 18 6 14 27 38